Tracking 17143 objects as of 30-June-2015
HD Live streaming from Space Station

OPS 5058 (DMSP 5B F2)

Track OPS 5058 (DMSP 5B F2) now!
10-day predictions
OPS 5058 (DMSP 5B F2) is classified as:


NORAD ID: 5903
Int'l Code: 1972-018A
Perigee: 781.6 km
Apogee: 857.3 km
Inclination: 99.1 °
Period: 101.1 minutes
Semi major axis: 7190 km
RCS: 1.4687 m2 (large)
Launch date: March 24, 1972
Source: United States (US)
Your satellite tracking list
Your tracking list is empty





NASA's NSSDC Master Catalog

Two Line Element Set (TLE):
1 05903U 72018A   15180.80551714  .00000050  00000-0  41880-4 0  9991
2 05903 099.0865 216.7414 0052668 092.7637 267.9571 14.23867301320290

Source of the keplerian elements: AFSPC

N2YO: 318